Aeroporto :
LOGIN :

Iscrizione | Disclaimer

   EN    FR    IT 

 










Sommario :    VFR   VFR Marginale   IFR   IFR Intensivo   IFR Molto Intensivo
Visibilità : 
Base nubi : 
>= 8 km
>= 3000ft
5 / 8 km
1000 / 3000 ft
1500m / 5 km
500 / 1000 ft
800 / 1500m
200 / 500 ft
< 800m
< 200 ft
Simboli :   Temporali  Nebbia  Neve Forte  Precipitazioni Forti  Vento > 20 kt
SIGMETs :   Varie  Temporali  Ghiacco  Turbolenza  Onda orograficha  Ceneri Vulcaniche






- Altitudine del aeroporto : 106 ft
- Codice IATA : NRN


EDLV - Weeze

ULTIMO METAR :
  • 221120Z 26020KT 9999 SCT030 11/07 Q1015

METARs OBSOLETI :
  • 221050Z 26017KT 9999 FEW029 11/06 Q1015
  • 221020Z 25017KT CAVOK 11/05 Q1014
  • 220950Z 24015KT 9999 SCT038 10/06 Q1014
  • 220920Z 24018KT CAVOK 09/05 Q1014

TAF TAF EDLV
Valido dal 22 a 12 ore il 23 a 12 ore UTC


221100Z 2212/2312 25015G25KT 9999 SCT030
TEMPO 2212/2215 26020G30KT
TEMPO 2213/2218 SHRA BKN020TCU
BECMG 2215/2218 25005KT
PROB30
TEMPO 2304/2309 3000 BR BKN007



MetMap, La meteo Aeronautica in un colpo d'occhio ! - Copyright ORBIFLY Dicembre 2007 - Disclaimer

ORBIFLY MET'MAP TEAM :

Programmazione e sviluppo : Alexandra Zaïnal
Concezione : Baudouin d'Aumeries
Aiuto per la programmazione : Marc-Olivier Méhu
Supporto tecnico e logistico : Manuel Goepfert
Aiuto per la traduzione : Arnaldo La Scala

Contatto : metmap@orbifly.com




FONTI E CREDITI :

   NOAA